AC0ID-13 Weather Reports


Display with metric or nautical units.
time (UTC)temp
F
wind
direction
speed
MPH
gust
MPH
rain 1hr
in
rain 24hr
in
rain mn
in
humidity
%
barometer
mb
20260902203013 90 248 2.0 8.0 0.00 0.67 0.65 59 1012.0
20260902202514 90 177 0.0 9.0 0.00 0.67 0.65 58 1012.0
20260902202016 90 135 1.0 9.0 0.00 0.67 0.65 57 1012.0
20260902201509 90 260 3.0 7.0 0.00 0.67 0.65 58 1012.0
20260902201009 89 137 1.0 5.0 0.00 0.67 0.65 57 1012.0
20260902200506 90 314 1.0 8.0 0.00 0.67 0.65 56 1012.0
20260902200014 89 243 2.0 8.0 0.00 0.67 0.65 57 1012.1
20260902195507 88 269 0.0 5.0 0.00 0.67 0.65 55 1012.1
20260902195014 89 144 1.0 5.0 0.00 0.67 0.65 56 1012.1
20260902194519 88 36 0.0 4.0 0.00 0.67 0.65 58 1012.2
20260902194012 88 238 1.0 6.0 0.00 0.67 0.65 58 1012.2
20260902193510 88 138 1.0 6.0 0.00 0.67 0.65 61 1012.2
20260902193024 87 152 2.0 6.0 0.00 0.67 0.65 59 1012.2
20260902192516 87 15 0.0 4.0 0.00 0.67 0.65 59 1012.3
20260902192010 87 132 1.0 4.0 0.00 0.67 0.65 60 1012.3
20260902191524 88 120 1.0 4.0 0.00 0.67 0.65 58 1012.3
20260902191015 88 103 0.0 3.0 0.00 0.67 0.65 61 1012.4
20260902190519 87 319 0.0 6.0 0.00 0.67 0.65 60 1012.5
20260902190020 87 113 0.0 6.0 0.00 0.67 0.65 61 1012.6
20260902185503 87 217 0.0 4.0 0.00 0.67 0.65 60 1012.8
20260902185004 87 232 1.0 7.0 0.00 0.67 0.65 60 1013.0
20260902184521 88 160 1.0 7.0 0.00 0.67 0.65 59 1013.1
20260902184003 87 269 3.0 7.0 0.00 0.67 0.65 60 1013.1
20260902183503 87 134 2.0 4.0 0.00 0.67 0.65 62 1013.0
20260902183009 86 319 0.0 4.0 0.00 0.67 0.65 62 1012.8
20260902182501 87 114 1.0 8.0 0.00 0.67 0.65 59 1012.8
20260902182002 86 283 0.0 8.0 0.00 0.67 0.65 59 1012.9
20260902181503 86 208 1.0 4.0 0.00 0.67 0.65 62 1013.0
20260902181003 86 196 0.0 5.0 0.00 0.67 0.65 62 1013.0
20260902180505 86 18 1.0 5.0 0.00 0.67 0.65 61 1013.1
20260902180007 86 239 1.0 6.0 0.00 0.67 0.65 59 1013.2
20260902175507 86 203 2.0 9.0 0.00 0.67 0.65 60 1013.3
20260902175008 86 250 3.0 9.0 0.00 0.67 0.65 61 1013.4
20260902174503 86 267 1.0 8.0 0.00 0.67 0.65 63 1013.5
20260902174007 85 225 3.0 8.0 0.00 0.67 0.65 62 1013.5
20260902173510 85 252 0.0 7.0 0.00 0.67 0.65 64 1013.5
20260902173025 85 271 3.0 7.0 0.00 0.67 0.65 63 1013.5
20260902172505 85 171 0.0 7.0 0.00 0.67 0.65 64 1013.5
20260902172007 84 220 2.0 6.0 0.00 0.67 0.65 64 1013.7
20260902171505 84 215 2.0 6.0 0.00 0.67 0.65 65 1013.7
20260902171002 84 215 2.0 5.0 0.00 0.67 0.65 64 1013.6
20260902170502 83 188 2.0 8.0 0.00 0.67 0.65 65 1013.7
20260902170004 83 239 4.0 8.0 0.00 0.67 0.65 65 1013.7
20260902165503 82 266 0.0 7.0 0.00 0.67 0.65 68 1013.7
20260902165004 82 267 1.0 9.0 0.00 0.67 0.65 67 1013.6
20260902164512 82 240 2.0 9.0 0.00 0.67 0.65 68 1013.5
20260902164007 82 271 2.0 9.0 0.00 0.67 0.65 67 1013.4
20260902163504 82 149 1.0 4.0 0.00 0.67 0.65 67 1013.5
20260902163008 81 232 1.0 6.0 0.00 0.67 0.65 69 1013.4
20260902162507 80 252 1.0 6.0 0.00 0.67 0.65 69 1013.4
20260902162009 80 145 1.0 6.0 0.00 0.67 0.65 69 1013.4
20260902161503 79 86 1.0 4.0 0.00 0.67 0.65 73 1013.5
20260902161007 78 131 1.0 9.0 0.00 0.67 0.65 73 1013.5
20260902160510 78 158 2.0 9.0 0.00 0.67 0.65 72 1013.6
20260902160027 78 80 1.0 9.0 0.00 0.67 0.65 73 1013.6
20260902155505 78 132 3.0 9.0 0.00 0.67 0.65 72 1013.6
20260902155003 78 153 3.0 9.0 0.00 0.67 0.65 74 1013.7
20260902154508 78 153 2.0 7.0 0.00 0.67 0.65 74 1013.7
20260902154002 78 160 1.0 5.0 0.00 0.67 0.65 78 1013.6
20260902153506 77 128 0.0 6.0 0.00 0.67 0.65 79 1013.5
20260902153012 76 153 2.0 8.0 0.00 0.67 0.65 78 1013.5
20260902152507 76 133 0.0 8.0 0.00 0.67 0.65 82 1013.5
20260902152007 75 244 2.0 7.0 0.00 0.67 0.65 80 1013.5
20260902151518 74 101 0.0 8.0 0.00 0.67 0.65 82 1013.5
20260902151011 74 170 2.0 8.0 0.00 0.67 0.65 81 1013.4
20260902150504 73 159 2.0 8.0 0.00 0.67 0.65 82 1013.4
20260902150014 73 111 2.0 8.0 0.00 0.67 0.65 84 1013.4
20260902145512 72 273 3.0 8.0 0.00 0.67 0.65 84 1013.5
20260902145015 72 121 2.0 9.0 0.00 0.67 0.65 85 1013.4
20260902144507 71 157 2.0 9.0 0.00 0.67 0.65 87 1013.5
20260902144005 71 139 2.0 7.0 0.00 0.67 0.65 88 1013.6
20260902143504 70 175 1.0 6.0 0.00 0.67 0.65 89 1013.7
20260902143009 69 129 1.0 6.0 0.00 0.67 0.65 90 1013.7
20260902142506 69 119 1.0 6.0 0.00 0.67 0.65 91 1013.7
20260902142009 68 145 0.0 4.0 0.00 0.67 0.65 92 1013.6
20260902141512 68 152 0.0 4.0 0.00 0.67 0.65 92 1013.7
20260902141008 67 146 1.0 4.0 0.00 0.67 0.65 92 1013.9
20260902140510 67 129 1.0 5.0 0.00 0.67 0.65 93 1014.0
20260902140020 67 109 1.0 5.0 0.00 0.67 0.65 93 1013.8
20260902135517 67 162 1.0 4.0 0.00 0.67 0.65 93 1013.8
20260902135010 66 105 1.0 4.0 0.00 0.67 0.65 93 1013.9
20260902134518 66 134 1.0 4.0 0.00 0.67 0.65 94 1014.1
20260902134014 66 121 1.0 6.0 0.00 0.67 0.65 94 1014.0
20260902133506 66 161 2.0 6.0 0.00 0.67 0.65 94 1014.0
20260902133016 66 141 0.0 3.0 0.00 0.67 0.65 94 1013.8
20260902132513 65 140 1.0 2.0 0.00 0.67 0.65 94 1013.7
20260902132007 65 92 0.0 5.0 0.00 0.67 0.65 94 1013.6
20260902131511 65 144 1.0 6.0 0.00 0.67 0.65 94 1013.9
20260902131009 65 157 2.0 6.0 0.00 0.67 0.65 94 1014.2
20260902130510 64 165 1.0 4.0 0.00 0.67 0.65 94 1014.1
20260902130010 64 127 0.0 3.0 0.00 0.67 0.65 94 1014.1
20260902125508 64 144 0.0 3.0 0.00 0.67 0.65 93 1014.0
20260902125014 64 98 0.0 0.0 0.01 0.67 0.65 93 1014.3
20260902124523 64 98 0.0 0.0 0.01 0.67 0.65 93 1014.4
20260902124011 64 98 0.0 2.0 0.01 0.67 0.65 93 1014.3
20260902123513 63 98 0.0 2.0 0.01 0.67 0.65 93 1014.3
20260902123029 63 123 0.0 2.0 0.01 0.67 0.65 93 1014.3
20260902122518 63 40 0.0 0.0 0.01 0.67 0.65 93 1014.2
20260902122012 63 40 0.0 0.0 0.01 0.67 0.65 93 1013.6
20260902121524 63 40 0.0 0.0 0.01 0.67 0.65 93 1013.6
20260902121014 63 40 0.0 1.0 0.01 0.67 0.65 93 1013.5
20260902120508 63 40 0.0 1.0 0.01 0.67 0.65 93 1013.3
20260902120015 63 40 0.0 0.0 0.01 0.67 0.65 93 1012.9
20260902115508 63 40 0.0 1.0 0.01 0.67 0.65 93 1012.9
20260902115010 63 40 0.0 1.0 0.00 0.66 0.64 93 1013.1
20260902114518 63 78 0.0 0.0 0.00 0.66 0.64 93 1013.3
20260902114012 64 79 0.0 0.0 0.00 0.66 0.64 93 1013.4
20260902113513 63 78 0.0 0.0 0.00 0.66 0.64 93 1013.5
20260902113016 64 78 0.0 0.0 0.00 0.66 0.64 93 1013.3
20260902112513 64 78 0.0 1.0 0.00 0.66 0.64 93 1013.5
20260902112017 64 79 0.0 2.0 0.00 0.66 0.64 93 1013.2
20260902111531 64 114 0.0 2.0 0.00 0.66 0.64 93 1013.3
20260902111008 64 352 0.0 1.0 0.01 0.66 0.64 93 1013.4
20260902110514 64 103 0.0 1.0 0.03 0.66 0.64 93 1013.6
20260902110044 64 157 0.0 1.0 0.03 0.66 0.64 93 1014.0
20260902105517 64 134 0.0 1.0 0.03 0.66 0.64 93 1014.4
20260902105010 64 134 0.0 1.0 0.03 0.66 0.64 93 1014.4
20260902104532 64 134 0.0 2.0 0.03 0.66 0.64 93 1014.7
20260902104010 64 134 0.0 2.0 0.03 0.66 0.64 93 1015.1
20260902103509 64 224 0.0 2.0 0.03 0.66 0.64 93 1014.6
20260902103044 64 224 0.0 3.0 0.03 0.66 0.64 93 1015.2
20260902102514 64 174 0.0 3.0 0.03 0.66 0.64 93 1015.0
20260902102015 63 210 0.0 5.0 0.03 0.66 0.64 93 1015.0
20260902101524 63 167 0.0 12.0 0.03 0.66 0.64 93 1015.3
20260902101015 63 82 1.0 12.0 0.02 0.65 0.63 93 1015.0
20260902100514 63 233 4.0 7.0 0.00 0.63 0.61 93 1015.8
20260902100016 63 139 0.0 3.0 0.00 0.63 0.61 93 1014.5
20260902095505 63 147 0.0 4.0 0.00 0.63 0.61 93 1014.2
20260902095006 63 125 1.0 4.0 0.00 0.63 0.61 92 1014.1
20260902094511 63 127 0.0 3.0 0.00 0.63 0.61 92 1014.2
20260902094010 62 154 1.0 3.0 0.00 0.63 0.61 92 1014.0
20260902093512 62 131 1.0 3.0 0.00 0.63 0.61 92 1013.7
20260902093010 62 119 0.0 1.0 0.00 0.63 0.61 92 1013.3
20260902092511 62 360 0.0 1.0 0.00 0.63 0.61 92 1013.3
20260902092017 62 336 0.0 2.0 0.00 0.63 0.61 92 1013.5
20260902091526 63 345 0.0 2.0 0.00 0.63 0.61 92 1013.4
20260902091006 63 82 0.0 1.0 0.00 0.63 0.61 92 1013.5
20260902090514 63 82 0.0 1.0 0.00 0.63 0.61 92 1013.6
20260902090035 63 9 0.0 1.0 0.00 0.63 0.61 92 1013.7
20260902085507 63 9 0.0 2.0 0.00 0.63 0.61 92 1013.6
20260902085010 63 43 0.0 2.0 0.00 0.63 0.61 92 1013.6
20260902084512 63 129 0.0 3.0 0.00 0.63 0.61 92 1013.5
20260902084008 64 129 0.0 3.0 0.00 0.63 0.61 92 1013.6
20260902083513 64 146 0.0 3.0 0.00 0.63 0.61 92 1013.5
20260902083013 64 131 0.0 0.0 0.00 0.63 0.61 92 1013.6
20260902082511 64 131 0.0 3.0 0.00 0.63 0.61 92 1013.6
20260902082013 64 131 0.0 3.0 0.00 0.63 0.61 92 1013.6
20260902081516 64 127 0.0 3.0 0.00 0.63 0.61 92 1013.8
20260902081013 64 127 0.0 3.0 0.00 0.63 0.61 92 1013.7
20260902080514 64 121 0.0 2.0 0.00 0.63 0.61 92 1013.8
20260902080020 64 84 0.0 6.0 0.00 0.63 0.61 92 1013.7
20260902075513 64 25 1.0 6.0 0.02 0.63 0.61 92 1013.6
20260902075015 64 352 1.0 9.0 0.03 0.63 0.61 92 1013.6
20260902074532 64 31 0.0 9.0 0.05 0.63 0.61 91 1013.5
20260902074010 64 5 1.0 8.0 0.20 0.63 0.61 91 1013.9
20260902073519 64 55 1.0 10.0 0.50 0.63 0.61 91 1013.6
20260902073030 65 352 2.0 10.0 0.61 0.63 0.61 91 1013.7
20260902072508 65 58 2.0 10.0 0.61 0.63 0.61 91 1014.0
20260902072012 65 352 2.0 9.0 0.61 0.63 0.61 91 1014.2
20260902071518 65 347 1.0 17.0 0.61 0.63 0.61 90 1014.5
20260902071012 65 13 5.0 17.0 0.61 0.63 0.61 90 1014.4
20260902070509 65 276 5.0 15.0 0.61 0.63 0.61 88 1014.3
20260902070027 66 284 4.0 16.0 0.61 0.63 0.61 88 1014.4
20260902065514 67 352 4.0 19.0 0.58 0.61 0.58 87 1015.7
20260902065020 68 305 6.0 26.0 0.58 0.60 0.58 87 1016.5
20260902064527 68 236 5.0 26.0 0.56 0.58 0.56 86 1016.1
20260902064015 70 321 7.0 24.0 0.41 0.43 0.41 85 1016.5
20260902063518 71 66 8.0 24.0 0.11 0.13 0.11 86 1015.9
20260902063041 71 214 7.0 17.0 0.00 0.02 0.00 88 1013.4
20260902062513 71 232 0.0 6.0 0.00 0.02 0.00 88 1011.8
20260902062015 71 55 1.0 6.0 0.00 0.02 0.00 88 1012.0
20260902061556 71 42 0.0 4.0 0.00 0.02 0.00 89 1012.0
20260902061009 71 5 0.0 4.0 0.00 0.02 0.00 89 1012.7
20260902060512 71 44 0.0 4.0 0.00 0.02 0.00 89 1012.5
20260902060035 71 9 0.0 2.0 0.00 0.02 0.00 89 1012.8
20260902055510 71 38 0.0 0.0 0.00 0.02 0.00 89 1013.0
20260902055014 71 38 0.0 1.0 0.00 0.02 0.00 89 1012.7
20260902054524 71 38 0.0 1.0 0.00 0.02 0.00 89 1012.7
20260902054016 71 38 0.0 3.0 0.02 0.02 0.00 89 1012.7
20260902053513 72 38 0.0 3.0 0.02 0.02 0.00 88 1012.6
20260902053037 72 20 0.0 3.0 0.02 0.02 0.00 89 1012.7
20260902052517 72 11 1.0 3.0 0.02 0.02 0.00 89 1013.0
20260902052015 72 352 0.0 2.0 0.02 0.02 0.00 89 1013.2
20260902051523 72 17 0.0 0.0 0.02 0.02 0.00 88 1013.1
20260902051017 72 17 0.0 2.0 0.02 0.02 0.00 88 1013.0
20260902050515 72 17 0.0 2.0 0.02 0.02 0.00 88 1013.2
20260902050022 73 294 0.0 1.0 0.02 0.02 0.00 88 1013.4
20260902045514 73 282 0.0 0.0 0.02 0.02 0.02 87 1013.5
20260902045013 73 282 0.0 0.0 0.02 0.02 0.02 87 1013.4
20260902044548 73 282 0.0 1.0 0.02 0.02 0.02 86 1013.3
20260902044014 73 282 0.0 1.0 0.00 0.00 0.00 85 1013.5
20260902043513 73 282 0.0 1.0 0.00 0.00 0.00 84 1013.6
20260902043034 73 282 0.0 1.0 0.00 0.00 0.00 84 1013.3
20260902042512 73 256 0.0 0.0 0.00 0.00 0.00 84 1013.5
20260902042018 73 256 0.0 2.0 0.00 0.00 0.00 83 1013.4
20260902041539 73 256 0.0 2.0 0.00 0.00 0.00 84 1013.4
20260902041018 73 14 0.0 1.0 0.00 0.00 0.00 84 1013.3
20260902040514 73 14 0.0 1.0 0.00 0.00 0.00 84 1013.2
20260902040030 73 14 0.0 1.0 0.00 0.00 0.00 84 1013.2
20260902035517 73 14 0.0 1.0 0.00 0.00 0.00 84 1013.2
20260902035020 73 14 0.0 0.0 0.00 0.00 0.00 85 1013.2
20260902034533 73 14 0.0 1.0 0.00 0.00 0.00 85 1013.3
20260902034015 73 14 0.0 1.0 0.00 0.00 0.00 85 1013.4
20260902033515 73 14 0.0 0.0 0.00 0.00 0.00 85 1013.6
20260902033023 73 14 0.0 0.0 0.00 0.00 0.00 85 1013.8
20260902032519 72 14 0.0 0.0 0.00 0.00 0.00 85 1013.8
20260902032011 72 14 0.0 0.0 0.00 0.00 0.00 85 1013.7
20260902031537 72 14 0.0 2.0 0.00 0.00 0.00 85 1013.7
20260902031015 72 14 0.0 2.0 0.00 0.00 0.00 85 1013.9
20260902030517 72 19 0.0 1.0 0.00 0.00 0.00 84 1013.7
20260902030016 73 215 0.0 0.0 0.00 0.00 0.00 84 1013.7
20260902025516 73 215 0.0 0.0 0.00 0.00 0.00 84 1013.8
20260902025008 73 215 0.0 0.0 0.00 0.00 0.00 83 1013.7
20260902024516 73 215 0.0 0.0 0.00 0.00 0.00 83 1013.7
20260902024011 73 215 0.0 0.0 0.00 0.00 0.00 83 1013.9
20260902023513 73 215 0.0 0.0 0.00 0.00 0.00 83 1014.0
20260902023027 74 215 0.0 0.0 0.00 0.00 0.00 82 1013.8
20260902022512 74 215 0.0 0.0 0.00 0.00 0.00 82 1013.8
20260902022013 74 215 0.0 0.0 0.00 0.00 0.00 81 1013.7
20260902021526 75 215 0.0 0.0 0.00 0.00 0.00 81 1013.7
20260902021014 75 215 0.0 0.0 0.00 0.00 0.00 81 1013.8
20260902020512 75 215 0.0 0.0 0.00 0.00 0.00 80 1013.8
20260902020029 75 215 0.0 0.0 0.00 0.00 0.00 80 1013.9
20260902015516 76 215 0.0 0.0 0.00 0.00 0.00 79 1013.9
20260902015011 76 215 0.0 0.0 0.00 0.00 0.00 79 1013.8
20260902014533 76 215 0.0 1.0 0.00 0.00 0.00 79 1013.7
20260902014018 76 215 0.0 1.0 0.00 0.00 0.00 79 1013.7
20260902013517 76 215 0.0 1.0 0.00 0.00 0.00 79 1013.7
20260902013017 76 215 0.0 0.0 0.00 0.00 0.00 78 1013.8
20260902012511 76 215 0.0 0.0 0.00 0.00 0.00 78 1013.7
20260902012014 76 215 0.0 0.0 0.00 0.00 0.00 78 1013.7
20260902011522 77 215 0.0 0.0 0.00 0.00 0.00 78 1013.6
20260902011015 77 215 0.0 0.0 0.00 0.00 0.00 77 1013.6
20260902010514 77 215 0.0 0.0 0.00 0.00 0.00 77 1013.5
20260902010034 77 215 0.0 0.0 0.00 0.00 0.00 76 1013.5
20260902005512 78 215 0.0 0.0 0.00 0.00 0.00 76 1013.8
20260902005018 78 215 0.0 0.0 0.00 0.00 0.00 75 1013.7
20260902004532 78 215 0.0 0.0 0.00 0.00 0.00 74 1013.6
20260902004017 78 215 0.0 0.0 0.00 0.00 0.00 74 1013.6
20260902003515 79 215 0.0 1.0 0.00 0.00 0.00 73 1013.6
20260902003006 79 215 0.0 1.0 0.00 0.00 0.00 73 1013.7
20260902002501 79 215 0.0 0.0 0.00 0.00 0.00 73 1013.7
20260902002003 80 215 0.0 0.0 0.00 0.00 0.00 72 1013.7
20260902001503 80 215 0.0 0.0 0.00 0.00 0.00 72 1013.7
20260902001002 80 215 0.0 0.0 0.00 0.00 0.00 71 1013.8
20260902000503 80 215 0.0 0.0 0.00 0.00 0.00 71 1013.8
20260902000007 80 215 0.0 0.0 0.00 0.00 0.00 70 1013.7
20260901235504 81 215 0.0 0.0 0.00 0.00 0.00 70 1013.7
20260901235003 81 215 0.0 0.0 0.00 0.00 0.00 69 1013.7
20260901234505 82 215 0.0 2.0 0.00 0.00 0.00 67 1013.7
20260901234002 82 215 0.0 2.0 0.00 0.00 0.00 65 1013.8
20260901233506 82 248 1.0 2.0 0.00 0.00 0.00 65 1013.8
20260901233012 82 215 0.0 1.0 0.00 0.00 0.00 65 1013.7
20260901232505 82 212 0.0 3.0 0.00 0.00 0.00 64 1013.7
20260901232004 82 211 0.0 3.0 0.00 0.00 0.00 63 1013.7
20260901231503 82 175 0.0 2.0 0.00 0.00 0.00 64 1013.7
20260901231005 82 252 0.0 1.0 0.00 0.00 0.00 66 1013.6
20260901230504 82 252 0.0 1.0 0.00 0.00 0.00 64 1013.5
20260901230008 83 252 0.0 0.0 0.00 0.00 0.00 64 1013.4
20260901225504 83 253 0.0 0.0 0.00 0.00 0.00 62 1013.5
20260901225003 83 253 0.0 2.0 0.00 0.00 0.00 62 1013.3
20260901224511 84 253 0.0 3.0 0.00 0.00 0.00 62 1013.4
20260901224008 84 243 0.0 3.0 0.00 0.00 0.00 61 1013.5
20260901223504 84 241 0.0 3.0 0.00 0.00 0.00 62 1013.6
20260901223011 84 234 0.0 4.0 0.00 0.00 0.00 61 1013.6
20260901222506 84 172 0.0 4.0 0.00 0.00 0.00 61 1013.6
20260901222004 84 257 1.0 3.0 0.00 0.00 0.00 60 1013.6
20260901221508 84 233 0.0 4.0 0.00 0.00 0.00 61 1013.7
20260901221005 84 193 1.0 6.0 0.00 0.00 0.00 61 1013.9
20260901220505 84 200 1.0 6.0 0.00 0.00 0.00 60 1014.0
20260901220007 84 241 0.0 4.0 0.00 0.00 0.00 59 1014.0
20260901215504 84 243 0.0 5.0 0.00 0.00 0.00 59 1013.9
20260901215008 85 218 0.0 6.0 0.00 0.00 0.00 58 1013.9
20260901214510 85 242 1.0 6.0 0.00 0.00 0.00 57 1013.9
20260901214007 85 207 0.0 3.0 0.00 0.00 0.00 55 1013.7
20260901213504 85 120 0.0 1.0 0.00 0.00 0.00 56 1013.7
20260901213019 85 120 0.0 2.0 0.00 0.00 0.00 57 1013.5
20260901212506 85 135 0.0 2.0 0.00 0.00 0.00 54 1013.3
20260901212008 86 170 0.0 2.0 0.00 0.00 0.00 54 1013.4
20260901211512 86 69 0.0 4.0 0.00 0.00 0.00 52 1013.7
20260901211008 86 219 0.0 4.0 0.00 0.00 0.00 48 1013.7
20260901210506 87 271 1.0 4.0 0.00 0.00 0.00 47 1013.7
20260901210014 87 204 0.0 4.0 0.00 0.00 0.00 47 1013.6
20260901205508 87 254 0.0 3.0 0.00 0.00 0.00 48 1013.5
20260901205009 87 242 1.0 3.0 0.00 0.00 0.00 46 1013.7
20260901204516 86 85 0.0 1.0 0.00 0.00 0.00 52 1013.5
20260901204008 85 85 0.0 2.0 0.00 0.00 0.00 50 1013.4
20260901203508 86 85 0.0 4.0 0.00 0.00 0.00 50 1013.5